Home > Weather > Fredericton > Past weeks

Flag for Canada Weather for the Past 2 Weeks in Fredericton, New Brunswick, Canada

Now
12 °F

Sunny.


Feels Like: -2 °F
Forecast: N/A
Wind: 12 mph from Northwest

Location: Fredericton

Current Time: Feb 12, 2016 at 5:08:12 PM

Latest Report: Feb 12, 2016 at 4:00 PM


Visibility: 9 mi

Pressure: 29.97 "Hg

Humidity: 40%

Dew point: -8 °F

Location of FrederictonLocation

Historic Weather in Fredericton — Graph

°F

Fredericton Temperature Yesterday

Maximum temperature yesterday: 27 °F (at 2:00 PM)
Minimum temperature yesterday: 16 °F (at 1:00 AM)
Average temperature yesterday: 21 °F

High & Low Weather Summary for the Past Weeks

 TemperatureHumidityPressure
High52 °F (Feb 1, 3:00 PM)100% (Jan 28, 11:00 PM)30.53 "Hg (Jan 28, 11:00 PM)
Low-2 °F (Feb 8, 5:00 AM)35% (Feb 7, 6:00 PM)29.35 "Hg (Jan 29, 5:00 PM)
Average25 °F81%29.87 "Hg
* Reported Jan 28 4:00 PM — Feb 12 4:00 PM, Fredericton, Weather by CustomWeather, © 2016

Note: Actual official high and low records may vary slightly from our data, if they occured in-between our weather recording intervals... More about our weather records

Advertising

Fredericton Weather History for the Previous 24 Hours

 ConditionsComfort  
Time TempWeatherWind HumidityBarometerVisibility
4:00 PM
Fri, Feb 12
12 °FSunny.12 mph40%29.97 "Hg9 mi
3:00 PM12 °FLight snow. Sunny.14 mph40%29.96 "Hg9 mi
2:56 PM12 °FSunny.14 mph40%29.96 "Hg9 mi
2:00 PM12 °FLight snow. Sunny.13 mph40%29.95 "Hg9 mi
1:00 PM10 °FLight snow. Sunny.13 mph44%29.96 "Hg9 mi
12:00 PM9 °FLight snow. Sunny.9 mph51%29.98 "Hg9 mi
11:00 AM7 °FLight snow. Sunny.13 mph51%29.97 "Hg9 mi
10:00 AM5 °FSunny.12 mph55%29.96 "Hg9 mi
9:57 AM5 °FLight snow. Sunny.9 mph55%29.96 "Hg7 mi
9:00 AM3 °FSunny.12 mph60%29.95 "Hg9 mi
8:00 AM1 °FSunny.8 mph71%29.93 "Hg9 mi
7:00 AM1 °FPassing clouds.9 mph78%29.89 "Hg9 mi
6:00 AM3 °FClear.7 mph85%29.86 "Hg9 mi
5:52 AM3 °FPassing clouds.7 mph85%29.85 "Hg9 mi
5:00 AM3 °FClear.6 mph85%29.83 "Hg9 mi
4:00 AM7 °FClear.8 mph78%29.81 "Hg9 mi
3:00 AM9 °FPassing clouds.8 mph78%29.78 "Hg9 mi
2:00 AM12 °FOvercast.13 mph73%29.73 "Hg9 mi
1:00 AM14 °FLight snow. Overcast.12 mph79%29.72 "Hg7 mi
12:59 AM14 °FLight snow. Overcast.12 mph79%29.72 "Hg6 mi
12:00 AM18 °FLight snow. Overcast.14 mph73%29.69 "Hg9 mi
11:00 PM
Thu, Feb 11
18 °FLight snow. Overcast.9 mph86%29.68 "Hg1 mi
10:04 PM18 °FLight snow. Overcast.3 mph86%29.66 "Hg2 mi
9:00 PM19 °FOvercast.5 mph73%29.65 "Hg9 mi
8:00 PM21 °FMostly cloudy.6 mph63%29.63 "Hg9 mi
7:00 PM21 °FOvercast.3 mph63%29.62 "Hg9 mi
6:00 PM23 °FMostly cloudy.9 mph58%29.59 "Hg9 mi
5:00 PM25 °FOvercast.9 mph59%29.57 "Hg9 mi
Weather by CustomWeather, © 2016

See weather overviewHow to use our weather pages